Year,Month,Day,Hour,Minute,Value (Times are PST for temperature in C)
2017,05,22,00,00,14.20
2017,05,22,00,01,14.20
2017,05,22,00,02,14.20
2017,05,22,00,03,14.20
2017,05,22,00,04,14.20
2017,05,22,00,05,14.20
2017,05,22,00,06,14.20
2017,05,22,00,07,14.20
2017,05,22,00,08,14.20
2017,05,22,00,09,14.20
2017,05,22,00,10,14.20
2017,05,22,00,11,14.10
2017,05,22,00,12,14.10
2017,05,22,00,13,14.10
2017,05,22,00,14,14.00
2017,05,22,00,15,14.00
2017,05,22,00,16,14.00
2017,05,22,00,17,14.00
2017,05,22,00,18,13.90
2017,05,22,00,19,13.90
2017,05,22,00,20,13.90
2017,05,22,00,21,13.80
2017,05,22,00,22,13.80
2017,05,22,00,23,13.80
2017,05,22,00,24,13.80
2017,05,22,00,25,13.80
2017,05,22,00,26,13.80
2017,05,22,00,27,13.80
2017,05,22,00,28,13.80
2017,05,22,00,29,13.80
2017,05,22,00,30,13.80
2017,05,22,00,31,13.80
2017,05,22,00,32,13.80
2017,05,22,00,33,13.80
2017,05,22,00,34,13.80
2017,05,22,00,35,13.80
2017,05,22,00,36,13.70
2017,05,22,00,37,13.70
2017,05,22,00,38,13.70
2017,05,22,00,39,13.70
2017,05,22,00,40,13.70
2017,05,22,00,41,13.70
2017,05,22,00,42,13.70
2017,05,22,00,43,13.70
2017,05,22,00,44,13.70
2017,05,22,00,45,13.70
2017,05,22,00,46,13.60
2017,05,22,00,47,13.60
2017,05,22,00,48,13.60
2017,05,22,00,49,13.60
2017,05,22,00,50,13.60
2017,05,22,00,51,13.60
2017,05,22,00,52,13.60
2017,05,22,00,53,13.60
2017,05,22,00,54,13.60
2017,05,22,00,55,13.60
2017,05,22,00,56,13.60
2017,05,22,00,57,13.60
2017,05,22,00,58,13.60
2017,05,22,00,59,13.50
2017,05,22,01,00,13.50
2017,05,22,01,01,13.50
2017,05,22,01,02,13.50
2017,05,22,01,03,13.50
2017,05,22,01,04,13.50
2017,05,22,01,05,13.50
2017,05,22,01,06,13.50
2017,05,22,01,07,13.50
2017,05,22,01,08,13.50
2017,05,22,01,09,13.50
2017,05,22,01,10,13.50
2017,05,22,01,11,13.50
2017,05,22,01,12,13.40
2017,05,22,01,13,13.40
2017,05,22,01,14,13.40
2017,05,22,01,15,13.40
2017,05,22,01,16,13.40
2017,05,22,01,17,13.40
2017,05,22,01,18,13.40
2017,05,22,01,19,13.40
2017,05,22,01,20,13.40
2017,05,22,01,21,13.40
2017,05,22,01,22,13.30
2017,05,22,01,23,13.30
2017,05,22,01,24,13.30
2017,05,22,01,25,13.30
2017,05,22,01,26,13.30
2017,05,22,01,27,13.30
2017,05,22,01,28,13.30
2017,05,22,01,29,13.30
2017,05,22,01,30,13.30
2017,05,22,01,31,13.30
2017,05,22,01,32,13.30
2017,05,22,01,33,13.30
2017,05,22,01,34,13.30
2017,05,22,01,35,13.30
2017,05,22,01,36,13.30
2017,05,22,01,37,13.20
2017,05,22,01,38,13.20
2017,05,22,01,39,13.20
2017,05,22,01,40,13.20
2017,05,22,01,41,13.10
2017,05,22,01,42,13.10
2017,05,22,01,43,13.10
2017,05,22,01,44,13.10
2017,05,22,01,45,13.10
2017,05,22,01,46,13.00
2017,05,22,01,47,13.00
2017,05,22,01,48,13.00
2017,05,22,01,49,13.00
2017,05,22,01,50,12.90
2017,05,22,01,51,12.90
2017,05,22,01,52,12.90
2017,05,22,01,53,12.80
2017,05,22,01,54,12.80
2017,05,22,01,55,12.80
2017,05,22,01,56,12.80
2017,05,22,01,57,12.80
2017,05,22,01,58,12.80
2017,05,22,01,59,12.80
2017,05,22,02,00,12.80
2017,05,22,02,01,12.70
2017,05,22,02,02,12.70
2017,05,22,02,03,12.70
2017,05,22,02,04,12.70
2017,05,22,02,05,12.70
2017,05,22,02,06,12.70
2017,05,22,02,07,12.60
2017,05,22,02,08,12.60
2017,05,22,02,09,12.60
2017,05,22,02,10,12.60
2017,05,22,02,11,12.60
2017,05,22,02,12,12.60
2017,05,22,02,13,12.60
2017,05,22,02,14,12.60
2017,05,22,02,15,12.60
2017,05,22,02,16,12.50
2017,05,22,02,17,12.50
2017,05,22,02,18,12.50
2017,05,22,02,19,12.50
2017,05,22,02,20,12.50
2017,05,22,02,21,12.50
2017,05,22,02,22,12.40
2017,05,22,02,23,12.40
2017,05,22,02,24,12.40
2017,05,22,02,25,12.40
2017,05,22,02,26,12.40
2017,05,22,02,27,12.40
2017,05,22,02,28,12.40
2017,05,22,02,29,12.40
2017,05,22,02,30,12.40
2017,05,22,02,31,12.40
2017,05,22,02,32,12.40
2017,05,22,02,33,12.30
2017,05,22,02,34,12.30
2017,05,22,02,35,12.30
2017,05,22,02,36,12.30
2017,05,22,02,37,12.30
2017,05,22,02,38,12.30
2017,05,22,02,39,12.30
2017,05,22,02,40,12.30
2017,05,22,02,41,12.30
2017,05,22,02,42,12.30
2017,05,22,02,43,12.30
2017,05,22,02,44,12.30
2017,05,22,02,45,12.30
2017,05,22,02,46,12.20
2017,05,22,02,47,12.20
2017,05,22,02,48,12.20
2017,05,22,02,49,12.20
2017,05,22,02,50,12.20
2017,05,22,02,51,12.20
2017,05,22,02,52,12.20
2017,05,22,02,53,12.10
2017,05,22,02,54,12.10
2017,05,22,02,55,12.10
2017,05,22,02,56,12.10
2017,05,22,02,57,12.10
2017,05,22,02,58,12.10
2017,05,22,02,59,12.10
2017,05,22,03,00,12.10
2017,05,22,03,01,12.10
2017,05,22,03,02,12.10
2017,05,22,03,03,12.10
2017,05,22,03,04,12.10
2017,05,22,03,05,12.10
2017,05,22,03,06,12.10
2017,05,22,03,07,12.10
2017,05,22,03,08,12.10
2017,05,22,03,09,12.10
2017,05,22,03,10,12.10
2017,05,22,03,11,12.10
2017,05,22,03,12,12.10
2017,05,22,03,13,12.10
2017,05,22,03,14,12.10
2017,05,22,03,15,12.10
2017,05,22,03,16,12.10
2017,05,22,03,17,12.10
2017,05,22,03,18,12.10
2017,05,22,03,19,12.10
2017,05,22,03,20,12.00
2017,05,22,03,21,12.00
2017,05,22,03,22,12.00
2017,05,22,03,23,12.00
2017,05,22,03,24,12.00
2017,05,22,03,25,12.00
2017,05,22,03,26,12.00
2017,05,22,03,27,11.90
2017,05,22,03,28,11.90
2017,05,22,03,29,11.90
2017,05,22,03,30,11.90
2017,05,22,03,31,11.90
2017,05,22,03,32,11.90
2017,05,22,03,33,11.90
2017,05,22,03,34,11.90
2017,05,22,03,35,11.80
2017,05,22,03,36,11.80
2017,05,22,03,37,11.80
2017,05,22,03,38,11.80
2017,05,22,03,39,11.80
2017,05,22,03,40,11.80
2017,05,22,03,41,11.80
2017,05,22,03,42,11.80
2017,05,22,03,43,11.80
2017,05,22,03,44,11.70
2017,05,22,03,45,11.70
2017,05,22,03,46,11.70
2017,05,22,03,47,11.60
2017,05,22,03,48,11.60
2017,05,22,03,49,11.60
2017,05,22,03,50,11.60
2017,05,22,03,51,11.60
2017,05,22,03,52,11.60
2017,05,22,03,53,11.60
2017,05,22,03,54,11.60
2017,05,22,03,55,11.60
2017,05,22,03,56,11.60
2017,05,22,03,57,11.60
2017,05,22,03,58,11.60
2017,05,22,03,59,11.60
2017,05,22,04,00,11.60
2017,05,22,04,01,11.60
2017,05,22,04,02,11.60
2017,05,22,04,03,11.60
2017,05,22,04,04,11.60
2017,05,22,04,05,11.60
2017,05,22,04,06,11.60
2017,05,22,04,07,11.60
2017,05,22,04,08,11.60
2017,05,22,04,09,11.60
2017,05,22,04,10,11.60
2017,05,22,04,11,11.60
2017,05,22,04,12,11.60
2017,05,22,04,13,11.60
2017,05,22,04,14,11.60
2017,05,22,04,15,11.60
2017,05,22,04,16,11.60
2017,05,22,04,17,11.60
2017,05,22,04,18,11.60
2017,05,22,04,19,11.60
2017,05,22,04,20,11.60
2017,05,22,04,21,11.60
2017,05,22,04,22,11.60
2017,05,22,04,23,11.60
2017,05,22,04,24,11.60
2017,05,22,04,25,11.60
2017,05,22,04,26,11.60
2017,05,22,04,27,11.60
2017,05,22,04,28,11.60
2017,05,22,04,29,11.60
2017,05,22,04,30,11.60
2017,05,22,04,31,11.50
2017,05,22,04,32,11.60
2017,05,22,04,33,11.50
2017,05,22,04,34,11.40
2017,05,22,04,35,11.40
2017,05,22,04,36,11.40
2017,05,22,04,37,11.40
2017,05,22,04,38,11.40
2017,05,22,04,39,11.40
2017,05,22,04,40,11.40
2017,05,22,04,41,11.40
2017,05,22,04,42,11.40
2017,05,22,04,43,11.40
2017,05,22,04,44,11.40
2017,05,22,04,45,11.40
2017,05,22,04,46,11.40
2017,05,22,04,47,11.40
2017,05,22,04,48,11.40
2017,05,22,04,49,11.40
2017,05,22,04,50,11.40
2017,05,22,04,51,11.40
2017,05,22,04,52,11.40
2017,05,22,04,53,11.40
2017,05,22,04,54,11.40
2017,05,22,04,55,11.40
2017,05,22,04,56,11.40
2017,05,22,04,57,11.50
2017,05,22,04,58,11.60
2017,05,22,04,59,11.60
2017,05,22,05,00,11.60
2017,05,22,05,01,11.60
2017,05,22,05,02,11.60
2017,05,22,05,03,11.60
2017,05,22,05,04,11.60
2017,05,22,05,05,11.40
2017,05,22,05,06,11.40
2017,05,22,05,07,11.40
2017,05,22,05,08,11.40
2017,05,22,05,09,11.40
2017,05,22,05,10,11.40
2017,05,22,05,11,11.40
2017,05,22,05,12,11.40
2017,05,22,05,13,11.40
2017,05,22,05,14,11.40
2017,05,22,05,15,11.40
2017,05,22,05,16,11.30
2017,05,22,05,17,11.30
2017,05,22,05,18,11.30
2017,05,22,05,19,11.30
2017,05,22,05,20,11.30
2017,05,22,05,21,11.30
2017,05,22,05,22,11.20
2017,05,22,05,23,11.20
2017,05,22,05,24,11.20
2017,05,22,05,25,11.20
2017,05,22,05,26,11.20
2017,05,22,05,27,11.20
2017,05,22,05,28,11.20
2017,05,22,05,29,11.20
2017,05,22,05,30,11.10
2017,05,22,05,31,11.10
2017,05,22,05,32,11.10
2017,05,22,05,33,11.10
2017,05,22,05,34,11.10
2017,05,22,05,35,11.10
2017,05,22,05,36,11.10
2017,05,22,05,37,11.10
2017,05,22,05,38,11.10
2017,05,22,05,39,11.10
2017,05,22,05,40,11.10
2017,05,22,05,41,11.10
2017,05,22,05,42,11.10
2017,05,22,05,43,11.10
2017,05,22,05,44,11.10
2017,05,22,05,45,11.10
2017,05,22,05,46,11.10
2017,05,22,05,47,11.10
2017,05,22,05,48,11.10
2017,05,22,05,49,11.10
2017,05,22,05,50,11.10
2017,05,22,05,51,11.10
2017,05,22,05,52,11.10
2017,05,22,05,53,11.10
2017,05,22,05,54,11.20
2017,05,22,05,55,11.20
2017,05,22,05,56,11.20
2017,05,22,05,57,11.20
2017,05,22,05,58,11.20
2017,05,22,05,59,11.20
2017,05,22,06,00,11.20
2017,05,22,06,01,11.20
2017,05,22,06,02,11.20
2017,05,22,06,03,11.20
2017,05,22,06,04,11.20
2017,05,22,06,05,11.20
2017,05,22,06,06,11.20
2017,05,22,06,07,11.30
2017,05,22,06,08,11.30
2017,05,22,06,09,11.30
2017,05,22,06,10,11.30
2017,05,22,06,11,11.30
2017,05,22,06,12,11.30
2017,05,22,06,13,11.40
2017,05,22,06,14,11.40
2017,05,22,06,15,11.40
2017,05,22,06,16,11.50
2017,05,22,06,17,11.60
2017,05,22,06,18,11.60
2017,05,22,06,19,11.70
2017,05,22,06,20,11.80
2017,05,22,06,21,11.80
2017,05,22,06,22,11.80
2017,05,22,06,23,11.80
2017,05,22,06,24,11.90
2017,05,22,06,25,11.90
2017,05,22,06,26,11.90
2017,05,22,06,27,11.90
2017,05,22,06,28,12.00
2017,05,22,06,29,12.10
2017,05,22,06,30,12.20
2017,05,22,06,31,12.20
2017,05,22,06,32,12.30
2017,05,22,06,33,12.30
2017,05,22,06,34,12.30
2017,05,22,06,35,12.40
2017,05,22,06,36,12.40
2017,05,22,06,37,12.40
2017,05,22,06,38,12.40
2017,05,22,06,39,12.50
2017,05,22,06,40,12.50
2017,05,22,06,41,12.50
2017,05,22,06,42,12.50
2017,05,22,06,43,12.60
2017,05,22,06,44,12.60
2017,05,22,06,45,12.60
2017,05,22,06,46,12.70
2017,05,22,06,47,12.70
2017,05,22,06,48,12.80
2017,05,22,06,49,12.80
2017,05,22,06,50,12.80
2017,05,22,06,51,12.90
2017,05,22,06,52,13.00
2017,05,22,06,53,13.00
2017,05,22,06,54,13.10
2017,05,22,06,55,13.10
2017,05,22,06,56,13.20
2017,05,22,06,57,13.20
2017,05,22,06,58,13.30
2017,05,22,06,59,13.30
2017,05,22,07,00,13.40
2017,05,22,07,01,13.40
2017,05,22,07,02,13.50
2017,05,22,07,03,13.60
2017,05,22,07,04,13.60
2017,05,22,07,05,13.70
2017,05,22,07,06,13.70
2017,05,22,07,07,13.80
2017,05,22,07,08,13.80
2017,05,22,07,09,13.90
2017,05,22,07,10,14.00
2017,05,22,07,11,14.00
2017,05,22,07,12,14.10
2017,05,22,07,13,14.10
2017,05,22,07,14,14.10
2017,05,22,07,15,14.10
2017,05,22,07,16,14.10
2017,05,22,07,17,14.10
2017,05,22,07,18,14.20
2017,05,22,07,19,14.20
2017,05,22,07,20,14.20
2017,05,22,07,21,14.20
2017,05,22,07,22,14.20
2017,05,22,07,23,14.20
2017,05,22,07,24,14.20
2017,05,22,07,25,14.30
2017,05,22,07,26,14.40
2017,05,22,07,27,14.50
2017,05,22,07,28,14.50
2017,05,22,07,29,14.50
2017,05,22,07,30,14.60
2017,05,22,07,31,14.60
2017,05,22,07,32,14.70
2017,05,22,07,33,14.80
2017,05,22,07,34,14.80
2017,05,22,07,35,14.80
2017,05,22,07,36,14.80
2017,05,22,07,37,14.90
2017,05,22,07,38,14.90
2017,05,22,07,39,15.00
2017,05,22,07,40,15.00
2017,05,22,07,41,15.10
2017,05,22,07,42,15.20
2017,05,22,07,43,15.30
2017,05,22,07,44,15.30
2017,05,22,07,45,15.50
2017,05,22,07,46,15.50
2017,05,22,07,47,15.60
2017,05,22,07,48,15.80
2017,05,22,07,49,15.80
2017,05,22,07,50,15.90
2017,05,22,07,51,16.00
2017,05,22,07,52,16.10
2017,05,22,07,53,16.20
2017,05,22,07,54,16.30
2017,05,22,07,55,16.40
2017,05,22,07,56,16.60
2017,05,22,07,57,16.70
2017,05,22,07,58,16.80
2017,05,22,07,59,16.90
2017,05,22,08,00,17.00
2017,05,22,08,01,17.00
2017,05,22,08,02,17.10
2017,05,22,08,03,17.30
2017,05,22,08,04,17.30
2017,05,22,08,05,17.40
2017,05,22,08,06,17.50
2017,05,22,08,07,17.50
2017,05,22,08,08,17.60
2017,05,22,08,09,17.70
2017,05,22,08,10,17.80
2017,05,22,08,11,17.80
2017,05,22,08,12,17.90
2017,05,22,08,13,17.90
2017,05,22,08,14,18.00
2017,05,22,08,15,18.10
2017,05,22,08,16,18.20
2017,05,22,08,17,18.20
2017,05,22,08,18,18.30
2017,05,22,08,19,18.30
2017,05,22,08,20,18.40
2017,05,22,08,21,18.40
2017,05,22,08,22,18.40
2017,05,22,08,23,18.50
2017,05,22,08,24,18.60
2017,05,22,08,25,18.60
2017,05,22,08,26,18.60
2017,05,22,08,27,18.60
2017,05,22,08,28,18.70
2017,05,22,08,29,18.70
2017,05,22,08,30,18.70
2017,05,22,08,31,18.80
2017,05,22,08,32,18.90
2017,05,22,08,33,18.90
2017,05,22,08,34,19.00
2017,05,22,08,35,19.10
2017,05,22,08,36,19.20
2017,05,22,08,37,19.30
2017,05,22,08,38,19.40
2017,05,22,08,39,19.50
2017,05,22,08,40,19.60
2017,05,22,08,41,19.70
2017,05,22,08,42,19.80
2017,05,22,08,43,19.90
2017,05,22,08,44,19.90
2017,05,22,08,45,20.10
2017,05,22,08,46,20.20
2017,05,22,08,47,20.20
2017,05,22,08,48,20.20
2017,05,22,08,49,20.30
2017,05,22,08,50,20.30
2017,05,22,08,51,20.40
2017,05,22,08,52,20.40
2017,05,22,08,53,20.50
2017,05,22,08,54,20.50
2017,05,22,08,55,20.50
2017,05,22,08,56,20.60
2017,05,22,08,57,20.60
2017,05,22,08,58,20.60
2017,05,22,08,59,20.70
2017,05,22,09,00,20.70
2017,05,22,09,01,20.80
2017,05,22,09,02,20.80
2017,05,22,09,03,20.90
2017,05,22,09,04,20.90
2017,05,22,09,05,21.00
2017,05,22,09,06,21.00
2017,05,22,09,07,21.00
2017,05,22,09,08,21.00
2017,05,22,09,09,21.00
2017,05,22,09,10,21.00
2017,05,22,09,11,21.00
2017,05,22,09,12,21.00
2017,05,22,09,13,21.00
2017,05,22,09,14,21.00
2017,05,22,09,15,21.00
2017,05,22,09,16,21.10
2017,05,22,09,17,21.10
2017,05,22,09,18,21.10
2017,05,22,09,19,21.10
2017,05,22,09,20,21.00
2017,05,22,09,21,20.90
2017,05,22,09,22,20.80
2017,05,22,09,23,20.70
2017,05,22,09,24,20.60
2017,05,22,09,25,20.50
2017,05,22,09,26,20.40
2017,05,22,09,27,20.20
2017,05,22,09,28,20.20
2017,05,22,09,29,20.10
2017,05,22,09,30,20.10
2017,05,22,09,31,19.90
2017,05,22,09,32,19.90
2017,05,22,09,33,19.80
2017,05,22,09,34,19.80
2017,05,22,09,35,19.80
2017,05,22,09,36,19.80
2017,05,22,09,37,19.80
2017,05,22,09,38,19.90
2017,05,22,09,39,19.80
2017,05,22,09,40,19.80
2017,05,22,09,41,19.70
2017,05,22,09,42,19.70
2017,05,22,09,43,19.80
2017,05,22,09,44,19.80
2017,05,22,09,45,19.80
2017,05,22,09,46,19.80
2017,05,22,09,47,19.90
2017,05,22,09,48,19.90
2017,05,22,09,49,19.90
2017,05,22,09,50,19.90
2017,05,22,09,51,20.00
2017,05,22,09,52,20.10
2017,05,22,09,53,20.20
2017,05,22,09,54,20.20
2017,05,22,09,55,20.30
2017,05,22,09,56,20.30
2017,05,22,09,57,20.40
2017,05,22,09,58,20.40
2017,05,22,09,59,20.50
2017,05,22,10,00,20.50
2017,05,22,10,01,20.50
2017,05,22,10,02,20.50
2017,05,22,10,03,20.60
2017,05,22,10,04,20.70
2017,05,22,10,05,20.70
2017,05,22,10,06,20.80
2017,05,22,10,07,20.80
2017,05,22,10,08,20.90
2017,05,22,10,09,20.90
2017,05,22,10,10,21.00
2017,05,22,10,11,21.00
2017,05,22,10,12,21.10
2017,05,22,10,13,21.20
2017,05,22,10,14,21.20
2017,05,22,10,15,21.20
2017,05,22,10,16,21.20
2017,05,22,10,17,21.20
2017,05,22,10,18,21.20
2017,05,22,10,19,21.10
2017,05,22,10,20,21.10
2017,05,22,10,21,21.10
2017,05,22,10,22,21.00
2017,05,22,10,23,21.00
2017,05,22,10,24,21.00
2017,05,22,10,25,21.00
2017,05,22,10,26,20.90
2017,05,22,10,27,20.90
2017,05,22,10,28,21.00
2017,05,22,10,29,21.00
2017,05,22,10,30,21.10
2017,05,22,10,31,21.20
2017,05,22,10,32,21.20
2017,05,22,10,33,21.30
2017,05,22,10,34,21.30
2017,05,22,10,35,21.30
2017,05,22,10,36,21.30
2017,05,22,10,37,21.30
2017,05,22,10,38,21.30
2017,05,22,10,39,21.30
2017,05,22,10,40,21.30
2017,05,22,10,41,21.30
2017,05,22,10,42,21.30
2017,05,22,10,43,21.30
2017,05,22,10,44,21.30
2017,05,22,10,45,21.30
2017,05,22,10,46,21.30
2017,05,22,10,47,21.30
2017,05,22,10,48,21.30
2017,05,22,10,49,21.30
2017,05,22,10,50,21.30
2017,05,22,10,51,21.30
2017,05,22,10,52,21.40
2017,05,22,10,53,21.40
2017,05,22,10,54,21.50
2017,05,22,10,55,21.60
2017,05,22,10,56,21.60
2017,05,22,10,57,21.80
2017,05,22,10,58,21.90
2017,05,22,10,59,21.90
2017,05,22,11,00,22.00
2017,05,22,11,01,22.00
2017,05,22,11,02,22.00
2017,05,22,11,03,22.00
2017,05,22,11,04,22.00
2017,05,22,11,05,22.00
2017,05,22,11,06,21.90
2017,05,22,11,07,21.90
2017,05,22,11,08,21.90
2017,05,22,11,09,21.90
2017,05,22,11,10,21.90
2017,05,22,11,11,22.00
2017,05,22,11,12,22.00
2017,05,22,11,13,22.00
2017,05,22,11,14,22.00
2017,05,22,11,15,22.00
2017,05,22,11,16,22.00
2017,05,22,11,17,22.00
2017,05,22,11,18,21.90
2017,05,22,11,19,22.00
2017,05,22,11,20,22.00
2017,05,22,11,21,22.10
2017,05,22,11,22,22.10
2017,05,22,11,23,22.10
2017,05,22,11,24,22.10
2017,05,22,11,25,22.20
2017,05,22,11,26,22.20
2017,05,22,11,27,22.20
2017,05,22,11,28,22.20
2017,05,22,11,29,22.30
2017,05,22,11,30,22.30
2017,05,22,11,31,22.40
2017,05,22,11,32,22.40
2017,05,22,11,33,22.50
2017,05,22,11,34,22.50
2017,05,22,11,35,22.50
2017,05,22,11,36,22.60
2017,05,22,11,37,22.60
2017,05,22,11,38,22.60
2017,05,22,11,39,22.60
2017,05,22,11,40,22.60
2017,05,22,11,41,22.70
2017,05,22,11,42,22.70
2017,05,22,11,43,22.80
2017,05,22,11,44,22.80
2017,05,22,11,45,22.90
2017,05,22,11,46,22.90
2017,05,22,11,47,22.90
2017,05,22,11,48,23.00
2017,05,22,11,49,23.10
2017,05,22,11,50,23.10
2017,05,22,11,51,23.10
2017,05,22,11,52,23.10
2017,05,22,11,53,23.20
2017,05,22,11,54,23.30
2017,05,22,11,55,23.20
2017,05,22,11,56,23.20
2017,05,22,11,57,23.20
2017,05,22,11,58,23.30
2017,05,22,11,59,23.30
2017,05,22,12,00,23.30
2017,05,22,12,01,23.30
2017,05,22,12,02,23.30
2017,05,22,12,03,23.30
2017,05,22,12,04,23.30
2017,05,22,12,05,23.30
2017,05,22,12,06,23.30
2017,05,22,12,07,23.30
2017,05,22,12,08,23.30
2017,05,22,12,09,23.30
2017,05,22,12,10,23.20
2017,05,22,12,11,23.10
2017,05,22,12,12,23.10
2017,05,22,12,13,23.20
2017,05,22,12,14,23.30
2017,05,22,12,15,23.30
2017,05,22,12,16,23.40
2017,05,22,12,17,23.60
2017,05,22,12,18,23.60
2017,05,22,12,19,23.60
2017,05,22,12,20,23.60
2017,05,22,12,21,23.50
2017,05,22,12,22,23.40
2017,05,22,12,23,23.40
2017,05,22,12,24,23.40
2017,05,22,12,25,23.40
2017,05,22,12,26,23.40
2017,05,22,12,27,23.50
2017,05,22,12,28,23.40
2017,05,22,12,29,23.50
2017,05,22,12,30,23.60
2017,05,22,12,31,23.60
2017,05,22,12,32,23.60
2017,05,22,12,33,23.70
2017,05,22,12,34,23.80
2017,05,22,12,35,24.00
2017,05,22,12,36,24.10
2017,05,22,12,37,24.10
2017,05,22,12,38,24.10
2017,05,22,12,39,24.10
2017,05,22,12,40,24.10
2017,05,22,12,41,24.10
2017,05,22,12,42,24.10
2017,05,22,12,43,24.10
2017,05,22,12,44,24.10
2017,05,22,12,45,24.10
2017,05,22,12,46,24.20
2017,05,22,12,47,24.30
2017,05,22,12,48,24.30
2017,05,22,12,49,24.40
2017,05,22,12,50,24.40
2017,05,22,12,51,24.40
2017,05,22,12,52,24.50
2017,05,22,12,53,24.50
2017,05,22,12,54,24.50
2017,05,22,12,55,24.50
2017,05,22,12,56,24.60
2017,05,22,12,57,24.60
2017,05,22,12,58,24.60
2017,05,22,12,59,24.60
2017,05,22,13,00,24.60
2017,05,22,13,01,24.60
2017,05,22,13,02,24.50
2017,05,22,13,03,24.50
2017,05,22,13,04,24.40
2017,05,22,13,05,24.40
2017,05,22,13,06,24.40
2017,05,22,13,07,24.30
2017,05,22,13,08,24.20
2017,05,22,13,09,24.10
2017,05,22,13,10,24.10
2017,05,22,13,11,24.10
2017,05,22,13,12,24.10
2017,05,22,13,13,24.10
2017,05,22,13,14,24.10
2017,05,22,13,15,24.10
2017,05,22,13,16,24.10
2017,05,22,13,17,24.10
2017,05,22,13,18,24.10
2017,05,22,13,19,24.00
2017,05,22,13,20,23.80
2017,05,22,13,21,23.80
2017,05,22,13,22,23.70
2017,05,22,13,23,23.70
2017,05,22,13,24,23.70
2017,05,22,13,25,23.70
2017,05,22,13,26,23.80
2017,05,22,13,27,23.90
2017,05,22,13,28,24.00
2017,05,22,13,29,24.10
2017,05,22,13,30,24.10
2017,05,22,13,31,24.10
2017,05,22,13,32,24.20
2017,05,22,13,33,24.20
2017,05,22,13,34,24.30
2017,05,22,13,35,24.40
2017,05,22,13,36,24.40
2017,05,22,13,37,24.50
2017,05,22,13,38,24.60
2017,05,22,13,39,24.70
2017,05,22,13,40,24.80
2017,05,22,13,41,24.80
2017,05,22,13,42,24.90
2017,05,22,13,43,24.90
2017,05,22,13,44,24.90
2017,05,22,13,45,24.90
2017,05,22,13,46,24.90
2017,05,22,13,47,25.00
2017,05,22,13,48,25.00
2017,05,22,13,49,25.00
2017,05,22,13,50,25.00
2017,05,22,13,51,25.00
2017,05,22,13,52,25.00
2017,05,22,13,53,25.10
2017,05,22,13,54,25.10
2017,05,22,13,55,25.00
2017,05,22,13,56,25.00
2017,05,22,13,57,25.10
2017,05,22,13,58,25.10
2017,05,22,13,59,25.10
2017,05,22,14,00,25.10
2017,05,22,14,01,25.10
2017,05,22,14,02,25.00
2017,05,22,14,03,25.00
2017,05,22,14,04,25.00
2017,05,22,14,05,25.10
2017,05,22,14,06,25.10
2017,05,22,14,07,25.20
2017,05,22,14,08,25.20
2017,05,22,14,09,25.20
2017,05,22,14,10,25.20
2017,05,22,14,11,25.20
2017,05,22,14,12,25.20
2017,05,22,14,13,25.20
2017,05,22,14,14,25.20
2017,05,22,14,15,25.20
2017,05,22,14,16,25.30
2017,05,22,14,17,25.20
2017,05,22,14,18,25.30
2017,05,22,14,19,25.30
2017,05,22,14,20,25.40
2017,05,22,14,21,25.30
2017,05,22,14,22,25.30
2017,05,22,14,23,25.40
2017,05,22,14,24,25.40
2017,05,22,14,25,25.40
2017,05,22,14,26,25.40
2017,05,22,14,27,25.40
2017,05,22,14,28,25.40
2017,05,22,14,29,25.50
2017,05,22,14,30,25.60
2017,05,22,14,31,25.60
2017,05,22,14,32,25.60
2017,05,22,14,33,25.70
2017,05,22,14,34,25.70
2017,05,22,14,35,25.70
2017,05,22,14,36,25.80
2017,05,22,14,37,25.80
2017,05,22,14,38,25.80
2017,05,22,14,39,25.80
2017,05,22,14,40,25.80
2017,05,22,14,41,25.70
2017,05,22,14,42,25.60
2017,05,22,14,43,25.70
2017,05,22,14,44,25.70
2017,05,22,14,45,25.70
2017,05,22,14,46,25.70
2017,05,22,14,47,25.70
2017,05,22,14,48,25.70
2017,05,22,14,49,25.70
2017,05,22,14,50,25.80
2017,05,22,14,51,25.80
2017,05,22,14,52,25.70
2017,05,22,14,53,25.70
2017,05,22,14,54,25.70
2017,05,22,14,55,25.70
2017,05,22,14,56,25.60
2017,05,22,14,57,25.50
2017,05,22,14,58,25.40
2017,05,22,14,59,25.30
2017,05,22,15,00,25.30
2017,05,22,15,01,25.30
2017,05,22,15,02,25.30
2017,05,22,15,03,25.40
2017,05,22,15,04,25.50
2017,05,22,15,05,25.60
2017,05,22,15,06,25.50
2017,05,22,15,07,25.50
2017,05,22,15,08,25.40
2017,05,22,15,09,25.40
2017,05,22,15,10,25.40
2017,05,22,15,11,25.40
2017,05,22,15,12,25.40
2017,05,22,15,13,25.50
2017,05,22,15,14,25.60
2017,05,22,15,15,25.60
2017,05,22,15,16,25.60
2017,05,22,15,17,25.50
2017,05,22,15,18,25.60
2017,05,22,15,19,25.60
2017,05,22,15,20,25.60
2017,05,22,15,21,25.60
2017,05,22,15,22,25.50
2017,05,22,15,23,25.30
2017,05,22,15,24,25.10
2017,05,22,15,25,24.90
2017,05,22,15,26,24.80
2017,05,22,15,27,24.70
2017,05,22,15,28,24.50
2017,05,22,15,29,24.50
2017,05,22,15,30,24.40
2017,05,22,15,31,24.20
2017,05,22,15,32,24.00
2017,05,22,15,33,23.70
2017,05,22,15,34,23.50
2017,05,22,15,35,23.30
2017,05,22,15,36,23.20
2017,05,22,15,37,23.10
2017,05,22,15,38,22.90
2017,05,22,15,39,22.80
2017,05,22,15,40,22.70
2017,05,22,15,41,22.70
2017,05,22,15,42,22.70
2017,05,22,15,43,22.80
2017,05,22,15,44,22.80
2017,05,22,15,45,22.80
2017,05,22,15,46,22.90
2017,05,22,15,47,22.90
2017,05,22,15,48,22.90
2017,05,22,15,49,22.90
2017,05,22,15,50,22.90
2017,05,22,15,51,22.90
2017,05,22,15,52,22.90
2017,05,22,15,53,22.90
2017,05,22,15,54,22.80
2017,05,22,15,55,22.70
2017,05,22,15,56,22.70
2017,05,22,15,57,22.60
2017,05,22,15,58,22.50
2017,05,22,15,59,22.40
2017,05,22,16,00,22.40
2017,05,22,16,01,22.40
2017,05,22,16,02,22.50
2017,05,22,16,03,22.50
2017,05,22,16,04,22.60
2017,05,22,16,05,22.70
2017,05,22,16,06,22.70
2017,05,22,16,07,22.70
2017,05,22,16,08,22.60
2017,05,22,16,09,22.50
2017,05,22,16,10,22.40
2017,05,22,16,11,22.40
2017,05,22,16,12,22.30
2017,05,22,16,13,22.30
2017,05,22,16,14,22.30
2017,05,22,16,15,22.30
2017,05,22,16,16,22.30
2017,05,22,16,17,22.40
2017,05,22,16,18,22.40
2017,05,22,16,19,22.40
2017,05,22,16,20,22.40
2017,05,22,16,21,22.40
2017,05,22,16,22,22.40
2017,05,22,16,23,22.50
2017,05,22,16,24,22.50
2017,05,22,16,25,22.50
2017,05,22,16,26,22.50
2017,05,22,16,27,22.40
2017,05,22,16,28,22.30
2017,05,22,16,29,22.30
2017,05,22,16,30,22.40
2017,05,22,16,31,22.60
2017,05,22,16,32,22.70
2017,05,22,16,33,22.70
2017,05,22,16,34,22.80
2017,05,22,16,35,22.90
2017,05,22,16,36,22.90
2017,05,22,16,37,23.00
2017,05,22,16,38,23.10
2017,05,22,16,39,23.10
2017,05,22,16,40,23.10
2017,05,22,16,41,23.10
2017,05,22,16,42,23.10
2017,05,22,16,43,23.10
2017,05,22,16,44,23.10
2017,05,22,16,45,23.00
2017,05,22,16,46,23.10
2017,05,22,16,47,23.10
2017,05,22,16,48,23.20
2017,05,22,16,49,23.20
2017,05,22,16,50,23.20
2017,05,22,16,51,23.30
2017,05,22,16,52,23.40
2017,05,22,16,53,23.40
2017,05,22,16,54,23.40
2017,05,22,16,55,23.40
2017,05,22,16,56,23.50
2017,05,22,16,57,23.60
2017,05,22,16,58,23.60
2017,05,22,16,59,23.70
2017,05,22,17,00,23.70
2017,05,22,17,01,23.60
2017,05,22,17,02,23.60
2017,05,22,17,03,23.50
2017,05,22,17,04,23.40
2017,05,22,17,05,23.30
2017,05,22,17,06,23.30
2017,05,22,17,07,23.30
2017,05,22,17,08,23.40
2017,05,22,17,09,23.40
2017,05,22,17,10,23.40
2017,05,22,17,11,23.50
2017,05,22,17,12,23.60
2017,05,22,17,13,23.60
2017,05,22,17,14,23.60
2017,05,22,17,15,23.60
2017,05,22,17,16,23.60
2017,05,22,17,17,23.50
2017,05,22,17,18,23.40
2017,05,22,17,19,23.30